timestamp,surface_pressure_avg,surface_temp_avg,battery_voltage,lat,long
2022-11-26 00:09:00+00:00,350.1863,5.7,12.73,47.84626,-54.09684
2022-11-26 00:19:00+00:00,351.168,5.7,12.65,47.84626,-54.09684
2022-11-26 00:29:00+00:00,362.6112,5.7,12.65,47.84626,-54.09684
2022-11-26 00:39:00+00:00,358.3462,5.6,12.65,47.84626,-54.09684
2022-11-26 00:49:00+00:00,355.25300000000016,5.6,12.65,47.84626,-54.09684
2022-11-26 00:59:00+00:00,357.0713,5.6,12.65,47.84626,-54.09684
2022-11-26 01:09:00+00:00,364.6246,5.6,12.65,47.84626,-54.09684
2022-11-26 01:19:00+00:00,362.7845,5.6,12.65,47.84626,-54.09684
2022-11-26 01:29:00+00:00,352.2413,5.6,12.65,47.84626,-54.09684
2022-11-26 01:39:00+00:00,355.8047,5.6,12.65,47.84626,-54.09684
2022-11-26 01:49:00+00:00,355.3563,5.6,12.65,47.84626,-54.09684
2022-11-26 01:59:00+00:00,347.0813,5.62,12.65,47.84626,-54.09684
2022-11-26 02:09:00+00:00,348.3596,5.67,12.65,47.84626,-54.09684
2022-11-26 02:19:00+00:00,342.8763,5.7,12.65,47.84626,-54.09684
2022-11-26 02:29:00+00:00,329.9547,5.71,12.65,47.84626,-54.09684
2022-11-26 02:39:00+00:00,323.7946,5.8,12.65,47.84626,-54.09684
2022-11-26 02:49:00+00:00,320.1931,5.8,12.65,47.84626,-54.09684
2022-11-26 02:59:00+00:00,309.8029,5.7,12.65,47.84626,-54.09684
2022-11-26 03:09:00+00:00,299.5096,5.69,12.65,47.84626,-54.09684
2022-11-26 03:19:00+00:00,298.4647,5.68,12.65,47.84626,-54.09684
2022-11-26 03:29:00+00:00,296.1979,5.68,12.65,47.84626,-54.09684
2022-11-26 03:39:00+00:00,289.873,5.67,12.65,47.84626,-54.09684
2022-11-26 03:49:00+00:00,284.608,5.69,12.65,47.84626,-54.09684
2022-11-26 03:59:00+00:00,270.4514,5.68,12.65,47.84626,-54.09684
2022-11-26 04:09:00+00:00,257.5081,5.74,12.65,47.84626,-54.09684
2022-11-26 04:19:00+00:00,246.5947,5.8,12.65,47.84626,-54.09684
2022-11-26 04:29:00+00:00,238.3881,5.84,12.65,47.84626,-54.09684
2022-11-26 04:39:00+00:00,229.6281,5.9,12.65,47.84626,-54.09684
2022-11-26 04:49:00+00:00,225.0748,5.9,12.65,47.84626,-54.09684
2022-11-26 04:59:00+00:00,218.2748,5.9,12.65,47.84626,-54.09684
2022-11-26 05:09:00+00:00,206.0731,5.9,12.65,47.84626,-54.09684
2022-11-26 05:19:00+00:00,192.2648,5.88,12.65,47.84626,-54.09684
2022-11-26 05:29:00+00:00,191.3481,5.84,12.65,47.84626,-54.09684
2022-11-26 05:39:00+00:00,192.6464,5.8,12.65,47.84626,-54.09684
2022-11-26 05:49:00+00:00,184.7131,5.8,12.65,47.84626,-54.09684
2022-11-26 05:59:00+00:00,183.3564,5.82,12.65,47.84626,-54.09684
2022-11-26 06:09:00+00:00,188.7348,5.83,12.65,47.84626,-54.09684
2022-11-26 06:19:01+00:00,184.5831,5.85,12.57,47.84626,-54.09684
2022-11-26 06:29:01+00:00,173.1049,5.84,12.57,47.84626,-54.09684
2022-11-26 06:39:01+00:00,175.7882,5.85,12.57,47.84626,-54.09684
2022-11-26 06:49:01+00:00,189.6515,5.87,12.57,47.84626,-54.09684
2022-11-26 06:59:01+00:00,186.5064,5.88,12.57,47.84626,-54.09684
2022-11-26 07:09:01+00:00,181.6915,5.88,12.57,47.84626,-54.09684
2022-11-26 07:19:00+00:00,188.6064,5.89,12.57,47.84626,-54.09684
2022-11-26 07:29:00+00:00,194.1331,5.9,12.57,47.84626,-54.09684
2022-11-26 07:39:00+00:00,193.5148,5.9,12.57,47.84626,-54.09684
2022-11-26 07:49:00+00:00,196.5981,5.9,12.57,47.84626,-54.09684
2022-11-26 07:59:00+00:00,202.8047,5.93,12.57,47.84626,-54.09684
2022-11-26 08:09:00+00:00,206.7681,5.99,12.57,47.84626,-54.09684
2022-11-26 08:19:00+00:00,213.4098,6.0,12.57,47.84626,-54.09684
2022-11-26 08:29:00+00:00,218.9549,6.0,12.57,47.84626,-54.09684
2022-11-26 08:39:00+00:00,217.2514,6.0,12.57,47.84626,-54.09684
2022-11-26 08:49:00+00:00,219.7831,6.0,12.57,47.84626,-54.09684
2022-11-26 08:59:00+00:00,231.8381,6.0,12.57,47.84626,-54.09684
2022-11-26 09:09:00+00:00,238.6531,6.0,12.57,47.84626,-54.09684
2022-11-26 09:19:00+00:00,243.9114,6.0,12.57,47.84626,-54.09684
2022-11-26 09:29:00+00:00,254.5881,5.99,12.57,47.84626,-54.09684
2022-11-26 09:39:00+00:00,266.2964,5.97,12.57,47.84626,-54.09684
2022-11-26 09:49:00+00:00,271.7463,5.99,12.57,47.84626,-54.09684
2022-11-26 09:59:00+00:00,277.0031,5.95,12.57,47.84626,-54.09684
2022-11-26 10:09:00+00:00,293.613,5.99,12.57,47.84626,-54.09684
2022-11-26 10:19:00+00:00,308.608,5.9,12.57,47.84626,-54.09684
2022-11-26 10:29:00+00:00,307.0613,5.9,12.57,47.84626,-54.09684
2022-11-26 10:39:00+00:00,307.8514,5.93,12.57,47.84626,-54.09684
2022-11-26 10:49:00+00:00,326.0746,5.99,12.57,47.84626,-54.09684
2022-11-26 10:59:00+00:00,340.6279,5.9,12.57,47.84626,-54.09684
2022-11-26 11:09:00+00:00,343.8096,5.9,12.57,47.84626,-54.09684
2022-11-26 11:19:00+00:00,353.0247,5.95,12.57,47.84626,-54.09684
2022-11-26 11:29:00+00:00,375.1929,5.97,12.57,47.84626,-54.09684
2022-11-26 11:39:00+00:00,381.8429,5.94,12.57,47.84626,-54.09684
2022-11-26 11:49:00+00:00,382.8962,5.9,12.57,47.84626,-54.09684
2022-11-26 11:59:00+00:00,396.9396,5.9,12.57,47.84626,-54.09684
2022-11-26 12:09:00+00:00,410.7479,5.9,12.57,47.84626,-54.09684
2022-11-26 12:19:01+00:00,411.6862,5.9,12.57,47.84626,-54.09684
2022-11-26 12:29:01+00:00,413.7896,5.9,12.57,47.84626,-54.09684
2022-11-26 12:39:01+00:00,421.1212,5.9,12.57,47.84626,-54.09684
2022-11-26 12:49:01+00:00,419.5462,5.9,12.57,47.84626,-54.09684
2022-11-26 12:59:01+00:00,414.3062,5.9,12.57,47.84626,-54.09684
2022-11-26 13:09:01+00:00,419.3196,5.9,12.57,47.84626,-54.09684
2022-11-26 13:19:00+00:00,419.0612,5.9,12.57,47.84626,-54.09684
2022-11-26 13:29:00+00:00,411.1612,5.9,12.57,47.84626,-54.09684
2022-11-26 13:39:00+00:00,408.8562,5.9,12.57,47.84626,-54.09684
2022-11-26 13:49:00+00:00,407.5512,5.9,12.57,47.84626,-54.09684
2022-11-26 13:59:00+00:00,405.718,5.9,12.57,47.84626,-54.09684
2022-11-26 14:09:00+00:00,402.2379,5.9,12.57,47.84626,-54.09684
2022-11-26 14:19:00+00:00,400.2913,5.9,12.65,47.84626,-54.09684
2022-11-26 14:29:00+00:00,401.6628,5.9,12.65,47.84626,-54.09684
2022-11-26 14:39:00+00:00,396.0379,5.9,12.65,47.84626,-54.09684
2022-11-26 14:49:00+00:00,392.0345,5.9,12.65,47.84626,-54.09684
2022-11-26 14:59:00+00:00,388.2396,5.9,12.65,47.84626,-54.09684
2022-11-26 15:09:00+00:00,381.4662,5.9,12.65,47.84626,-54.09684
2022-11-26 15:19:00+00:00,378.3729,5.9,12.65,47.84626,-54.09684
2022-11-26 15:29:00+00:00,366.1896,5.88,12.65,47.84626,-54.09684
2022-11-26 15:39:00+00:00,351.608,5.86,12.65,47.84626,-54.09684
2022-11-26 15:49:00+00:00,347.57300000000015,5.8,12.65,47.84626,-54.09684
2022-11-26 15:59:00+00:00,344.0479,5.8,12.65,47.84626,-54.09684
2022-11-26 16:09:00+00:00,330.5496,5.8,12.65,47.84626,-54.09684
2022-11-26 16:19:00+00:00,318.1413,5.8,12.65,47.84626,-54.09684
2022-11-26 16:29:00+00:00,319.4563,5.8,12.65,47.84626,-54.09684
2022-11-26 16:39:00+00:00,307.5664,5.8,12.65,47.84626,-54.09684
2022-11-26 16:49:00+00:00,288.8397,5.8,12.65,47.84626,-54.09684
2022-11-26 16:59:00+00:00,281.053,5.8,12.65,47.84626,-54.09684
2022-11-26 17:09:00+00:00,276.7415,5.83,12.65,47.84626,-54.09684
2022-11-26 17:19:00+00:00,261.3098,5.84,12.65,47.84626,-54.09684
2022-11-26 17:29:00+00:00,247.9331,5.84,12.65,47.84626,-54.09684
2022-11-26 17:39:00+00:00,245.2164,5.85,12.65,47.84626,-54.09684
2022-11-26 17:49:00+00:00,236.6564,5.8,12.65,47.84626,-54.09684
2022-11-26 17:59:00+00:00,223.8597,5.82,12.65,47.84626,-54.09684
2022-11-26 18:09:00+00:00,221.7548,5.8,12.65,47.84626,-54.09684
2022-11-26 18:19:00+00:00,222.3448,5.8,12.57,47.84626,-54.09684
2022-11-26 18:29:00+00:00,218.8798,5.83,12.57,47.84626,-54.09684
2022-11-26 18:39:00+00:00,212.3031,5.85,12.57,47.84626,-54.09684
2022-11-26 18:49:00+00:00,207.3564,5.84,12.57,47.84626,-54.09684
2022-11-26 18:59:00+00:00,203.7731,5.83,12.57,47.84626,-54.09684
2022-11-26 19:09:00+00:00,202.2198,5.84,12.57,47.84626,-54.09684
2022-11-26 19:19:00+00:00,201.5464,5.85,12.57,47.84626,-54.09684
2022-11-26 19:29:00+00:00,202.1681,5.87,12.57,47.84626,-54.09684
2022-11-26 19:39:00+00:00,203.3781,5.89,12.57,47.84626,-54.09684
2022-11-26 19:49:00+00:00,202.1964,5.9,12.57,47.84626,-54.09684
2022-11-26 19:59:00+00:00,200.1681,5.9,12.57,47.84626,-54.09684
2022-11-26 20:09:00+00:00,203.6031,5.9,12.57,47.84626,-54.09684
2022-11-26 20:19:00+00:00,208.1198,5.9,12.57,47.84626,-54.09684
2022-11-26 20:29:00+00:00,211.1381,5.9,12.57,47.84626,-54.09684
2022-11-26 20:39:00+00:00,210.9814,5.89,12.57,47.84626,-54.09684
2022-11-26 20:49:00+00:00,211.9681,5.84,12.57,47.84626,-54.09684
2022-11-26 20:59:00+00:00,216.6148,5.8,12.57,47.84626,-54.09684
2022-11-26 21:09:00+00:00,220.9131,5.7,12.57,47.84626,-54.09684
2022-11-26 21:19:01+00:00,222.7531,5.4,12.57,47.84626,-54.09684
2022-11-26 21:29:01+00:00,225.7515,5.3,12.57,47.84626,-54.09684
2022-11-26 21:39:01+00:00,228.7681,5.2,12.57,47.84626,-54.09684
2022-11-26 21:49:01+00:00,234.8748,5.19,12.57,47.84626,-54.09684
2022-11-26 21:59:01+00:00,243.7181,5.1,12.57,47.84626,-54.09684
2022-11-26 22:09:01+00:00,248.7381,5.05,12.57,47.84626,-54.09684
2022-11-26 22:19:00+00:00,252.7881,5.0,12.57,47.84626,-54.09684
2022-11-26 22:29:00+00:00,262.5547,5.38,12.57,47.84626,-54.09684
2022-11-26 22:39:00+00:00,270.7397,5.13,12.57,47.84626,-54.09684
2022-11-26 22:49:00+00:00,278.6697,5.01,12.57,47.84626,-54.09684
2022-11-26 22:59:00+00:00,285.1614,5.0,12.57,47.84626,-54.09684
2022-11-26 23:09:00+00:00,294.0797,4.96,12.57,47.84626,-54.09684
2022-11-26 23:19:00+00:00,294.2764,4.9,12.49,47.84626,-54.09684
2022-11-26 23:29:00+00:00,304.303,4.9,12.49,47.84626,-54.09684
2022-11-26 23:39:00+00:00,315.8947,4.89,12.49,47.84626,-54.09684
2022-11-26 23:49:00+00:00,324.1346,4.86,12.49,47.84626,-54.09684
2022-11-26 23:59:00+00:00,330.4430000000001,4.89,12.49,47.84626,-54.09684
